Location: Cortos
(40.7190°N, 4.5893°W)
Time: 04:26:29
(UTC+00:00)

GEOS 3 Rocket - Pass Details

Date: 05 July 2020
Orbit: 771 x 848 km, 115.0° (Epoch: 11 August)

Event Time Altitude Azimuth Distance (km) Brightness Sun altitude
Rises 20:58:47 0° 37° (NE) 3,413 6.9 -10.8°
Reaches altitude 10° 21:01:08 10° 40° (NE) 2,476 6.2 -11.1°
Maximum altitude 21:06:31 67° 123° (ESE) 915 3.7 -11.9°
Drops below altitude 10° 21:11:51 10° 206° (SSW) 2,454 5.9 -12.6°
Sets 21:14:10 0° 209° (SSW) 3,380 6.7 -12.9°
